Time,TemperatureF,DewpointF,PressureIn,WindDirection,WindDirectionDegrees,WindSpeedMPH,WindSpeedGustMPH,Humidity,HourlyPrecipIn,Conditions,Clouds,dailyrainin,SolarRadiationWatts/m^2,SoftwareType,DateUTC
2013-05-21 00:11:00,36.0,27.0,29.81,WNW,298,0.0,0.0,71,0.00,,,0.00,0,weatherlink.com 1.10,2013-05-21 06:11:00,
2013-05-21 00:26:00,36.3,28.0,29.81,North,360,0.0,0.0,73,0.00,,,0.00,0,weatherlink.com 1.10,2013-05-21 06:26:00,
2013-05-21 00:41:00,35.1,27.0,29.82,WNW,298,0.0,0.0,73,0.00,,,0.00,0,weatherlink.com 1.10,2013-05-21 06:41:00,
2013-05-21 00:56:00,34.9,27.0,29.82,WNW,298,0.0,0.0,74,0.00,,,0.00,0,weatherlink.com 1.10,2013-05-21 06:56:00,
2013-05-21 01:11:00,35.8,29.0,29.81,WNW,298,0.0,0.0,75,0.00,,,0.00,0,weatherlink.com 1.10,2013-05-21 07:11:00,
2013-05-21 01:26:00,35.9,29.0,29.81,WNW,299,0.0,0.0,75,0.00,,,0.00,0,weatherlink.com 1.10,2013-05-21 07:26:00,
2013-05-21 01:41:00,35.3,29.0,29.81,WNW,298,0.0,0.0,77,0.00,,,0.00,0,weatherlink.com 1.10,2013-05-21 07:41:00,
2013-05-21 01:56:00,35.2,29.0,29.80,WNW,298,0.0,0.0,77,0.00,,,0.00,0,weatherlink.com 1.10,2013-05-21 07:56:00,
2013-05-21 02:11:00,35.1,29.0,29.79,WNW,298,0.0,1.0,78,0.00,,,0.00,0,weatherlink.com 1.10,2013-05-21 08:11:00,
2013-05-21 02:26:00,35.7,29.0,29.80,WNW,298,0.0,0.0,76,0.00,,,0.00,0,weatherlink.com 1.10,2013-05-21 08:26:00,
2013-05-21 02:41:00,34.7,28.0,29.80,WNW,297,0.0,0.0,77,0.00,,,0.00,0,weatherlink.com 1.10,2013-05-21 08:41:00,
2013-05-21 02:56:00,34.4,29.0,29.80,WNW,297,0.0,0.0,79,0.00,,,0.00,0,weatherlink.com 1.10,2013-05-21 08:56:00,
2013-05-21 03:11:00,34.3,28.0,29.80,WNW,297,0.0,0.0,79,0.00,,,0.00,0,weatherlink.com 1.10,2013-05-21 09:11:00,
2013-05-21 03:26:00,33.5,28.0,29.81,WNW,298,0.0,0.0,79,0.00,,,0.00,0,weatherlink.com 1.10,2013-05-21 09:26:00,
2013-05-21 03:41:00,32.3,27.0,29.81,WNW,297,0.0,0.0,82,0.00,,,0.00,0,weatherlink.com 1.10,2013-05-21 09:41:00,
2013-05-21 03:57:00,31.9,27.0,29.82,WNW,297,0.0,0.0,83,0.00,,,0.00,0,weatherlink.com 1.10,2013-05-21 09:57:00,
2013-05-21 04:12:00,32.7,28.0,29.81,WNW,300,0.0,1.0,82,0.00,,,0.00,0,weatherlink.com 1.10,2013-05-21 10:12:00,
2013-05-21 04:27:00,32.5,28.0,29.81,WNW,300,0.0,0.0,82,0.00,,,0.00,0,weatherlink.com 1.10,2013-05-21 10:27:00,
2013-05-21 04:42:00,31.8,28.0,29.82,WNW,300,0.0,0.0,84,0.00,,,0.00,0,weatherlink.com 1.10,2013-05-21 10:42:00,
2013-05-21 04:57:00,32.0,28.0,29.82,WNW,300,0.0,0.0,84,0.00,,,0.00,0,weatherlink.com 1.10,2013-05-21 10:57:00,
2013-05-21 05:12:00,32.6,27.0,29.82,NNW,335,0.0,0.0,81,0.00,,,0.00,0,weatherlink.com 1.10,2013-05-21 11:12:00,
2013-05-21 05:27:00,32.3,28.0,29.83,NNW,335,0.0,0.0,84,0.00,,,0.00,0,weatherlink.com 1.10,2013-05-21 11:27:00,
2013-05-21 05:42:00,31.8,28.0,29.83,NNW,335,0.0,0.0,84,0.00,,,0.00,0,weatherlink.com 1.10,2013-05-21 11:42:00,
2013-05-21 05:57:00,31.5,27.0,29.83,NNW,335,0.0,0.0,84,0.00,,,0.00,0,weatherlink.com 1.10,2013-05-21 11:57:00,
2013-05-21 06:12:00,31.6,28.0,29.84,NNW,335,0.0,0.0,85,0.00,,,0.00,14,weatherlink.com 1.10,2013-05-21 12:12:00,
2013-05-21 06:27:00,31.9,28.0,29.84,NNW,335,0.0,0.0,85,0.00,,,0.00,23,weatherlink.com 1.10,2013-05-21 12:27:00,
2013-05-21 06:42:00,32.2,28.0,29.85,NNW,335,0.0,0.0,84,0.00,,,0.00,32,weatherlink.com 1.10,2013-05-21 12:42:00,
2013-05-21 06:57:00,32.2,28.0,29.86,NNW,338,0.0,0.0,85,0.00,,,0.00,35,weatherlink.com 1.10,2013-05-21 12:57:00,
2013-05-21 07:12:00,32.6,28.0,29.86,NNW,335,0.0,0.0,84,0.00,,,0.00,33,weatherlink.com 1.10,2013-05-21 13:12:00,
2013-05-21 07:27:00,32.3,28.0,29.86,NNW,335,0.0,0.0,84,0.00,,,0.00,35,weatherlink.com 1.10,2013-05-21 13:27:00,
2013-05-21 07:42:00,33.5,29.0,29.87,NNW,335,0.0,0.0,83,0.00,,,0.00,32,weatherlink.com 1.10,2013-05-21 13:42:00,
2013-05-21 07:57:00,34.2,29.0,29.87,NNW,336,0.0,0.0,82,0.00,,,0.00,46,weatherlink.com 1.10,2013-05-21 13:57:00,
2013-05-21 08:12:00,36.5,31.0,29.87,North,360,0.0,1.0,80,0.00,,,0.00,53,weatherlink.com 1.10,2013-05-21 14:12:00,
2013-05-21 08:27:00,39.0,31.0,29.87,North,360,0.0,1.0,73,0.00,,,0.00,79,weatherlink.com 1.10,2013-05-21 14:27:00,
2013-05-21 08:42:00,41.3,32.0,29.87,North,360,0.0,1.0,69,0.00,,,0.00,506,weatherlink.com 1.10,2013-05-21 14:42:00,
2013-05-21 08:57:00,42.0,31.0,29.86,NW,316,0.0,2.0,66,0.00,,,0.00,559,weatherlink.com 1.10,2013-05-21 14:57:00,
2013-05-21 09:12:00,44.0,30.0,29.85,WNW,300,0.0,2.0,59,0.00,,,0.00,613,weatherlink.com 1.10,2013-05-21 15:12:00,
2013-05-21 09:27:00,44.3,30.0,29.85,SW,234,1.0,3.0,57,0.00,,,0.00,659,weatherlink.com 1.10,2013-05-21 15:27:00,
2013-05-21 09:42:00,46.7,30.0,29.84,NW,322,0.0,2.0,53,0.00,,,0.00,707,weatherlink.com 1.10,2013-05-21 15:42:00,
2013-05-21 09:57:00,48.3,30.0,29.83,NNW,331,2.0,3.0,50,0.00,,,0.00,751,weatherlink.com 1.10,2013-05-21 15:57:00,
2013-05-21 10:13:00,48.8,29.0,29.82,WSW,250,1.0,6.0,47,0.00,,,0.00,826,weatherlink.com 1.10,2013-05-21 16:13:00,
2013-05-21 10:28:00,50.5,31.0,29.82,WNW,291,3.0,4.0,47,0.00,,,0.00,946,weatherlink.com 1.10,2013-05-21 16:28:00,
2013-05-21 10:43:00,51.3,29.0,29.82,NW,304,3.0,4.0,42,0.00,,,0.00,956,weatherlink.com 1.10,2013-05-21 16:43:00,
2013-05-21 10:58:00,52.0,28.0,29.81,West,269,2.0,5.0,40,0.00,,,0.00,116,weatherlink.com 1.10,2013-05-21 16:58:00,
2013-05-21 11:13:00,55.0,29.0,29.81,West,277,2.0,6.0,37,0.00,,,0.00,1000,weatherlink.com 1.10,2013-05-21 17:13:00,
2013-05-21 11:28:00,54.1,26.0,29.81,WSW,254,1.0,7.0,34,0.00,,,0.00,969,weatherlink.com 1.10,2013-05-21 17:28:00,
2013-05-21 11:43:00,56.1,25.0,29.80,SW,235,2.0,6.0,30,0.00,,,0.00,986,weatherlink.com 1.10,2013-05-21 17:43:00,
2013-05-21 11:58:00,57.0,25.0,29.81,WSW,253,3.0,8.0,29,0.00,,,0.00,1014,weatherlink.com 1.10,2013-05-21 17:58:00,
2013-05-21 12:13:00,58.2,23.0,29.80,SW,223,4.0,7.0,26,0.00,,,0.00,1027,weatherlink.com 1.10,2013-05-21 18:13:00,
2013-05-21 12:28:00,58.6,25.0,29.79,West,269,5.0,7.0,27,0.00,,,0.00,1039,weatherlink.com 1.10,2013-05-21 18:28:00,
2013-05-21 12:43:00,57.4,23.0,29.79,WSW,258,5.0,8.0,27,0.00,,,0.00,1060,weatherlink.com 1.10,2013-05-21 18:43:00,
2013-05-21 12:58:00,59.0,24.0,29.79,SSW,213,2.0,7.0,26,0.00,,,0.00,1055,weatherlink.com 1.10,2013-05-21 18:58:00,
2013-05-21 13:13:00,59.6,22.0,29.79,West,273,2.0,9.0,23,0.00,,,0.00,1063,weatherlink.com 1.10,2013-05-21 19:13:00,
2013-05-21 13:28:00,61.1,18.0,29.78,West,261,9.0,9.0,19,0.00,,,0.00,1062,weatherlink.com 1.10,2013-05-21 19:28:00,
2013-05-21 13:43:00,63.2,22.0,29.78,SW,229,4.0,9.0,21,0.00,,,0.00,1083,weatherlink.com 1.10,2013-05-21 19:43:00,
2013-05-21 13:58:00,62.7,22.0,29.78,SSW,207,5.0,10.0,21,0.00,,,0.00,1056,weatherlink.com 1.10,2013-05-21 19:58:00,
2013-05-21 14:13:00,61.8,23.0,29.78,West,273,5.0,8.0,23,0.00,,,0.00,1058,weatherlink.com 1.10,2013-05-21 20:13:00,
2013-05-21 14:28:00,61.7,22.0,29.78,WNW,293,1.0,10.0,22,0.00,,,0.00,237,weatherlink.com 1.10,2013-05-21 20:28:00,
2013-05-21 14:43:00,57.9,23.0,29.78,SW,232,4.0,6.0,26,0.00,,,0.00,267,weatherlink.com 1.10,2013-05-21 20:43:00,
2013-05-21 14:58:00,58.7,25.0,29.78,WSW,254,5.0,7.0,27,0.00,,,0.00,1018,weatherlink.com 1.10,2013-05-21 20:58:00,
2013-05-21 15:13:00,57.9,26.0,29.78,WNW,290,1.0,8.0,29,0.00,,,0.00,673,weatherlink.com 1.10,2013-05-21 21:13:00,
2013-05-21 15:28:00,55.5,24.0,29.77,WSW,243,0.0,4.0,30,0.00,,,0.00,250,weatherlink.com 1.10,2013-05-21 21:28:00,
2013-05-21 15:43:00,57.0,26.0,29.76,WSW,252,0.0,4.0,30,0.00,,,0.00,304,weatherlink.com 1.10,2013-05-21 21:43:00,
2013-05-21 15:58:00,59.1,26.0,29.75,WNW,289,1.0,4.0,28,0.00,,,0.00,795,weatherlink.com 1.10,2013-05-21 21:58:00,
2013-05-21 16:13:00,58.5,24.0,29.75,SW,222,3.0,5.0,27,0.00,,,0.00,719,weatherlink.com 1.10,2013-05-21 22:13:00,
2013-05-21 16:28:00,61.6,20.0,29.74,NW,311,1.0,7.0,20,0.00,,,0.00,944,weatherlink.com 1.10,2013-05-21 22:28:00,
2013-05-21 16:43:00,59.3,19.0,29.74,SW,236,3.0,6.0,21,0.00,,,0.00,248,weatherlink.com 1.10,2013-05-21 22:43:00,
2013-05-21 16:58:00,60.9,21.0,29.75,WSW,249,3.0,6.0,21,0.00,,,0.00,380,weatherlink.com 1.10,2013-05-21 22:58:00,
2013-05-21 17:13:00,58.1,20.0,29.75,SW,227,5.0,8.0,23,0.00,,,0.00,118,weatherlink.com 1.10,2013-05-21 23:13:00,
2013-05-21 17:28:00,56.8,20.0,29.75,SW,229,2.0,5.0,24,0.00,,,0.00,311,weatherlink.com 1.10,2013-05-21 23:28:00,
2013-05-21 17:43:00,60.3,21.0,29.73,WNW,284,1.0,6.0,22,0.00,,,0.00,394,weatherlink.com 1.10,2013-05-21 23:43:00,
2013-05-21 17:59:00,58.5,21.0,29.73,NW,308,1.0,6.0,23,0.00,,,0.00,176,weatherlink.com 1.10,2013-05-21 23:59:00,
2013-05-21 18:14:00,57.8,19.0,29.72,ENE,78,2.0,4.0,22,0.00,,,0.00,206,weatherlink.com 1.10,2013-05-22 00:14:00,
2013-05-21 18:29:00,57.5,20.0,29.73,NW,307,2.0,4.0,23,0.00,,,0.00,84,weatherlink.com 1.10,2013-05-22 00:29:00,
2013-05-21 18:44:00,56.8,19.0,29.73,NW,307,1.0,2.0,23,0.00,,,0.00,47,weatherlink.com 1.10,2013-05-22 00:44:00,
2013-05-21 18:59:00,56.3,20.0,29.73,SW,224,0.0,4.0,24,0.00,,,0.00,19,weatherlink.com 1.10,2013-05-22 00:59:00,
2013-05-21 19:14:00,56.1,20.0,29.74,West,272,2.0,5.0,24,0.00,,,0.00,18,weatherlink.com 1.10,2013-05-22 01:14:00,
2013-05-21 19:29:00,55.9,19.0,29.74,WNW,293,4.0,8.0,24,0.00,,,0.00,54,weatherlink.com 1.10,2013-05-22 01:29:00,
2013-05-21 19:44:00,56.7,21.0,29.75,NW,306,0.0,6.0,25,0.00,,,0.00,25,weatherlink.com 1.10,2013-05-22 01:44:00,
2013-05-21 19:59:00,54.0,25.0,29.76,WNW,290,1.0,4.0,33,0.00,,,0.00,7,weatherlink.com 1.10,2013-05-22 01:59:00,
2013-05-21 20:14:00,52.0,26.0,29.76,NE,42,0.0,2.0,36,0.00,,,0.00,0,weatherlink.com 1.10,2013-05-22 02:14:00,
2013-05-21 20:29:00,51.0,25.0,29.77,East,97,0.0,2.0,36,0.00,,,0.00,0,weatherlink.com 1.10,2013-05-22 02:29:00,
2013-05-21 20:44:00,49.6,25.0,29.77,North,360,0.0,1.0,38,0.00,,,0.00,0,weatherlink.com 1.10,2013-05-22 02:44:00,
2013-05-21 20:59:00,49.4,24.0,29.78,North,360,1.0,1.0,37,0.00,,,0.00,0,weatherlink.com 1.10,2013-05-22 02:59:00,
2013-05-21 21:14:00,50.0,22.0,29.78,North,360,0.0,2.0,34,0.00,,,0.00,0,weatherlink.com 1.10,2013-05-22 03:14:00,
2013-05-21 21:29:00,50.4,20.0,29.79,North,360,2.0,6.0,30,0.00,,,0.00,0,weatherlink.com 1.10,2013-05-22 03:29:00,
2013-05-21 21:44:00,50.5,19.0,29.79,North,360,0.0,4.0,29,0.00,,,0.00,0,weatherlink.com 1.10,2013-05-22 03:44:00,
2013-05-21 21:59:00,50.0,18.0,29.80,North,360,1.0,2.0,28,0.00,,,0.00,0,weatherlink.com 1.10,2013-05-22 03:59:00,
2013-05-21 22:14:00,48.9,19.0,29.80,North,360,0.0,1.0,30,0.00,,,0.00,0,weatherlink.com 1.10,2013-05-22 04:14:00,
2013-05-21 22:29:00,46.2,18.0,29.80,North,360,0.0,1.0,33,0.00,,,0.00,0,weatherlink.com 1.10,2013-05-22 04:29:00,
2013-05-21 22:44:00,45.0,19.0,29.80,North,360,0.0,0.0,36,0.00,,,0.00,0,weatherlink.com 1.10,2013-05-22 04:44:00,
2013-05-21 22:59:00,45.5,18.0,29.80,North,360,0.0,1.0,33,0.00,,,0.00,0,weatherlink.com 1.10,2013-05-22 04:59:00,
2013-05-21 23:14:00,45.7,18.0,29.78,North,360,0.0,1.0,33,0.00,,,0.00,0,weatherlink.com 1.10,2013-05-22 05:14:00,
2013-05-21 23:29:00,45.0,18.0,29.77,North,360,0.0,1.0,34,0.00,,,0.00,0,weatherlink.com 1.10,2013-05-22 05:29:00,
2013-05-21 23:44:00,44.5,18.0,29.77,North,360,0.0,0.0,35,0.00,,,0.00,0,weatherlink.com 1.10,2013-05-22 05:44:00,
2013-05-21 23:59:00,44.6,18.0,29.77,North,360,1.0,1.0,34,0.00,,,0.00,0,weatherlink.com 1.10,2013-05-22 05:59:00,